Retour au catalogue

CZ-4 DEB

ActifSSO
NORAD 28074·DEBRIS·🇨🇳 China

Lancé Oct 14, 1999 depuis Taiyuan Satellite Launch Center

Loading…

Prochains Passages (prochaines 24 heures)

TLE

FraisSource: Space-Track

Époque: Sep 14, 2026, 09:15 UTC

1 28074U 99057NE  26257.38554632  .00000092  00000-0  46757-4 0  9993
2 28074  98.8211 300.1342 0103738 103.9273 269.7690 14.34147884236286

Suivez CZ-4 DEB en temps réel avec AllMySat

Download on the App Store